TimeCST,TemperatureF,Dew PointF,Humidity,Sea Level PressureIn,VisibilityMPH,Wind Direction,Wind SpeedMPH,Gust SpeedMPH,PrecipitationIn,Events,Conditions,WindDirDegrees,DateUTC
12:11 AM,23.0,21.2,93,29.93,7.0,Calm,Calm,-,N/A,,Mostly Cloudy,0,2013-12-02 06:11:00
12:31 AM,23.0,21.2,93,29.91,7.0,Calm,Calm,-,N/A,,Mostly Cloudy,0,2013-12-02 06:31:00
12:52 AM,24.8,21.2,86,29.91,7.0,Calm,Calm,-,N/A,,Overcast,0,2013-12-02 06:52:00
1:11 AM,23.0,21.2,93,29.90,7.0,Calm,Calm,-,N/A,,Overcast,0,2013-12-02 07:11:00
1:31 AM,24.8,23.0,93,29.90,7.0,Calm,Calm,-,N/A,,Overcast,0,2013-12-02 07:31:00
1:52 AM,26.6,24.8,93,29.90,7.0,Calm,Calm,-,N/A,,Overcast,0,2013-12-02 07:52:00
2:11 AM,26.6,24.8,93,29.89,7.0,Calm,Calm,-,N/A,,Overcast,0,2013-12-02 08:11:00
2:31 AM,26.6,24.8,93,29.89,7.0,Calm,Calm,-,N/A,,Overcast,0,2013-12-02 08:31:00
2:52 AM,26.6,24.8,93,29.88,7.0,Calm,Calm,-,N/A,,Overcast,0,2013-12-02 08:52:00
3:11 AM,28.4,26.6,93,29.87,7.0,Calm,Calm,-,N/A,,Overcast,0,2013-12-02 09:11:00
3:31 AM,28.4,26.6,93,29.87,7.0,Calm,Calm,-,N/A,,Overcast,0,2013-12-02 09:31:00
3:52 AM,28.4,26.6,93,29.86,7.0,Calm,Calm,-,N/A,,Overcast,0,2013-12-02 09:52:00
4:11 AM,28.4,26.6,93,29.85,7.0,Calm,Calm,-,N/A,,Overcast,0,2013-12-02 10:11:00
4:32 AM,30.2,26.6,86,29.84,7.0,ESE,3.5,-,N/A,,Overcast,120,2013-12-02 10:32:00
4:52 AM,30.2,26.6,86,29.83,7.0,ESE,3.5,-,N/A,,Overcast,120,2013-12-02 10:52:00
5:11 AM,30.2,26.6,86,29.81,10.0,East,6.9,-,N/A,Snow,Light Snow,90,2013-12-02 11:11:00
5:32 AM,30.2,26.6,86,29.80,7.0,East,6.9,-,N/A,,Overcast,80,2013-12-02 11:32:00
5:51 AM,30.2,26.6,86,29.80,7.0,East,4.6,-,N/A,,Overcast,100,2013-12-02 11:51:00
6:11 AM,32.0,26.6,80,29.80,7.0,ESE,4.6,-,N/A,,Overcast,110,2013-12-02 12:11:00
6:32 AM,32.0,28.4,87,29.80,7.0,SE,4.6,-,N/A,,Overcast,130,2013-12-02 12:32:00
6:51 AM,32.0,28.4,87,29.80,7.0,SE,6.9,-,N/A,,Overcast,140,2013-12-02 12:51:00
7:11 AM,32.0,28.4,87,29.80,7.0,SE,4.6,-,N/A,Snow,Light Snow,140,2013-12-02 13:11:00
7:32 AM,32.0,28.4,87,29.79,5.0,SE,8.1,-,N/A,Snow,Light Snow,140,2013-12-02 13:32:00
7:51 AM,32.0,30.2,93,29.79,2.0,SE,8.1,-,N/A,Snow,Light Snow,140,2013-12-02 13:51:00
8:11 AM,32.0,30.2,93,29.78,1.5,SE,5.8,-,N/A,Snow,Light Snow,130,2013-12-02 14:11:00
8:32 AM,32.0,30.2,93,29.78,1.8,SE,6.9,-,N/A,Snow,Light Snow,130,2013-12-02 14:32:00
8:51 AM,32.0,30.2,93,29.77,2.0,SE,6.9,-,N/A,Snow,Light Snow,130,2013-12-02 14:51:00
9:11 AM,32.0,32.0,100,29.76,2.0,ESE,8.1,-,N/A,Snow,Light Snow,110,2013-12-02 15:11:00
9:32 AM,32.0,30.2,93,29.75,3.0,ESE,9.2,-,N/A,Snow,Light Snow,110,2013-12-02 15:32:00
9:51 AM,32.0,30.2,93,29.75,3.0,ESE,9.2,-,N/A,,Overcast,110,2013-12-02 15:51:00
10:11 AM,32.0,32.0,100,29.75,4.0,ESE,8.1,-,N/A,,Overcast,120,2013-12-02 16:11:00
10:32 AM,32.0,32.0,100,29.74,4.0,ESE,9.2,-,N/A,,Mostly Cloudy,110,2013-12-02 16:32:00
10:51 AM,33.8,32.0,93,29.73,4.0,SE,9.2,-,N/A,,Scattered Clouds,130,2013-12-02 16:51:00
11:12 AM,33.8,32.0,93,29.72,5.0,SE,6.9,-,N/A,,Mostly Cloudy,130,2013-12-02 17:12:00
11:31 AM,33.8,32.0,93,29.72,5.0,SE,9.2,-,N/A,,Mostly Cloudy,130,2013-12-02 17:31:00
11:52 AM,35.6,32.0,87,29.70,5.0,SE,8.1,-,N/A,,Scattered Clouds,130,2013-12-02 17:52:00
12:12 PM,35.6,32.0,87,29.70,5.0,ESE,8.1,-,N/A,,Mostly Cloudy,120,2013-12-02 18:12:00
12:31 PM,35.6,32.0,87,29.69,5.0,SE,9.2,-,N/A,,Haze,130,2013-12-02 18:31:00
12:52 PM,35.6,32.0,87,29.68,5.0,SE,10.4,-,N/A,,Haze,130,2013-12-02 18:52:00
1:12 PM,35.6,32.0,87,29.67,7.0,ESE,9.2,-,N/A,,Mostly Cloudy,110,2013-12-02 19:12:00
1:31 PM,35.6,32.0,87,29.66,7.0,ESE,10.4,-,N/A,,Overcast,120,2013-12-02 19:31:00
1:52 PM,35.6,32.0,87,29.65,7.0,ESE,8.1,-,N/A,,Overcast,120,2013-12-02 19:52:00
2:12 PM,35.6,32.0,87,29.64,5.0,ESE,10.4,-,N/A,,Haze,120,2013-12-02 20:12:00
2:31 PM,35.6,32.0,87,29.65,7.0,SE,10.4,-,N/A,,Overcast,130,2013-12-02 20:31:00
2:52 PM,35.6,32.0,87,29.64,7.0,ESE,9.2,-,N/A,,Overcast,110,2013-12-02 20:52:00
3:11 PM,35.6,32.0,87,29.64,5.0,ESE,9.2,-,N/A,Snow,Light Snow,110,2013-12-02 21:11:00
3:32 PM,33.8,32.0,93,29.64,2.0,ESE,10.4,-,N/A,Snow,Light Snow,110,2013-12-02 21:32:00
3:52 PM,33.8,32.0,93,29.64,1.2,ESE,9.2,-,N/A,Snow,Light Snow,110,2013-12-02 21:52:00
4:11 PM,33.8,32.0,93,29.64,0.5,ESE,9.2,-,0.01,Snow,Light Snow,110,2013-12-02 22:11:00
4:32 PM,33.8,32.0,93,29.64,0.8,East,6.9,-,0.03,Snow,Light Snow,100,2013-12-02 22:32:00
4:51 PM,32.0,32.0,100,29.64,0.8,East,6.9,-,0.05,Snow,Snow,100,2013-12-02 22:51:00
5:12 PM,32.0,32.0,100,29.63,1.0,ESE,6.9,-,0.01,Snow,Light Snow,110,2013-12-02 23:12:00
5:32 PM,32.0,32.0,100,29.62,1.2,East,8.1,-,0.03,Snow,Light Snow,100,2013-12-02 23:32:00
5:51 PM,33.8,32.0,93,29.62,1.8,ESE,6.9,-,0.03,Snow,Light Snow,110,2013-12-02 23:51:00
6:12 PM,33.8,32.0,93,29.61,2.5,East,9.2,-,0.01,Snow,Light Snow,100,2013-12-03 00:12:00
6:31 PM,33.8,32.0,93,29.61,3.0,East,8.1,-,0.01,,Overcast,100,2013-12-03 00:31:00
6:52 PM,33.8,32.0,93,29.63,3.0,ESE,10.4,-,0.01,,Overcast,120,2013-12-03 00:52:00
7:11 PM,33.8,32.0,93,29.62,4.0,SE,8.1,-,N/A,,Overcast,130,2013-12-03 01:11:00
7:31 PM,33.8,32.0,93,29.62,2.5,SE,6.9,-,N/A,,Overcast,130,2013-12-03 01:31:00
7:52 PM,33.8,32.0,93,29.63,1.8,SE,10.4,-,N/A,,Overcast,140,2013-12-03 01:52:00
8:12 PM,33.8,33.8,100,29.63,2.0,SE,10.4,-,N/A,,Overcast,140,2013-12-03 02:12:00
8:31 PM,33.8,33.8,100,29.63,1.8,SE,10.4,-,N/A,,Overcast,130,2013-12-03 02:31:00
8:52 PM,33.8,33.8,100,29.63,2.0,SE,10.4,-,N/A,,Overcast,130,2013-12-03 02:52:00
9:11 PM,33.8,33.8,100,29.63,2.5,SE,8.1,-,N/A,,Overcast,130,2013-12-03 03:11:00
9:32 PM,33.8,33.8,100,29.62,2.0,SE,8.1,-,N/A,,Overcast,130,2013-12-03 03:32:00
9:52 PM,33.8,33.8,100,29.62,2.5,SE,10.4,-,N/A,,Overcast,140,2013-12-03 03:52:00
10:11 PM,33.8,33.8,100,29.61,3.0,SE,10.4,16.1,N/A,,Overcast,140,2013-12-03 04:11:00
10:32 PM,33.8,33.8,100,29.61,4.0,SE,9.2,-,N/A,,Overcast,130,2013-12-03 04:32:00
10:52 PM,33.8,33.8,100,29.62,5.0,SE,10.4,-,N/A,,Overcast,140,2013-12-03 04:52:00
11:11 PM,33.8,33.8,100,29.62,5.0,SE,10.4,-,N/A,,Overcast,130,2013-12-03 05:11:00
11:32 PM,33.8,33.8,100,29.62,5.0,SE,5.8,-,N/A,,Overcast,130,2013-12-03 05:32:00
11:52 PM,33.8,33.8,100,29.62,4.0,SE,8.1,-,N/A,,Overcast,140,2013-12-03 05:52:00